When you browse on this site, cookies collect data to enhance your experience and personalize the content and advertising you see.
Visit our Privacy Policy to learn more. By continuing to use the site, you agree to this use of cookies and data.
  • In Romania
  • List of Countries
  • For 7 days
  • Water Temperature
  • Satellite Maps
  • Weather Map
  • Weather Widgets
  • user-avatar
    Login

    Hourly Weather Kirkuk

    Today, 24 March, Sunday

    Time Temperature Precipitation Wind Pressure Humidity
    00:00 +13°C° 0 mm 3 mps 729 mmHg 49%
    01:00 +13°C° 0 mm 3 mps 728 mmHg 50%
    02:00 +13°C° 0 mm 4 mps 728 mmHg 51%
    03:00 +13°C° 0 mm 4 mps 727 mmHg 52%
    04:00 +13°C° 0 mm 4 mps 727 mmHg 51%
    05:00 +12°C° 0 mm 4 mps 727 mmHg 50%
    06:00 +12°C° 0 mm 4 mps 727 mmHg 49%
    07:00 +13°C° 0.4 mm 5 mps 726 mmHg 52%
    08:00 +13°C° 0.4 mm 6 mps 726 mmHg 56%
    09:00 +14°C° 0.4 mm 7 mps 726 mmHg 59%
    10:00 +15°C° 0.7 mm 7 mps 725 mmHg 57%
    11:00 +16°C° 0.7 mm 7 mps 725 mmHg 56%
    12:00 +17°C° 0.7 mm 8 mps 724 mmHg 54%
    13:00 +18°C° 0 mm 8 mps 723 mmHg 51%
    14:00 +21°C° 0 mm 8 mps 723 mmHg 48%
    15:00 +22°C° 0 mm 8 mps 722 mmHg 45%
    16:00 +21°C° 1.4 mm 7 mps 722 mmHg 49%
    17:00 +20°C° 1.4 mm 6 mps 721 mmHg 53%
    18:00 +19°C° 1.4 mm 5 mps 721 mmHg 58%
    19:00 +17°C° 0.5 mm 5 mps 721 mmHg 64%
    20:00 +16°C° 0.5 mm 5 mps 721 mmHg 71%
    21:00 +15°C° 0.5 mm 5 mps 721 mmHg 78%
    22:00 +15°C° 1.4 mm 5 mps 720 mmHg 80%
    23:00 +15°C° 1.4 mm 5 mps 720 mmHg 83%

    Tomorrow, 25 March, Monday

    Time Temperature Precipitation Wind Pressure Humidity
    00:00 +15°C° 1.4 mm 5 mps 719 mmHg 85%
    01:00 +15°C° 0.9 mm 6 mps 719 mmHg 83%
    02:00 +15°C° 0.9 mm 6 mps 718 mmHg 81%
    03:00 +14°C° 0.9 mm 7 mps 717 mmHg 79%
    04:00 +14°C° 2.5 mm 7 mps 717 mmHg 80%
    05:00 +14°C° 2.5 mm 6 mps 717 mmHg 81%
    06:00 +14°C° 2.5 mm 6 mps 716 mmHg 82%
    07:00 +14°C° 3.5 mm 7 mps 716 mmHg 83%
    08:00 +15°C° 3.5 mm 9 mps 716 mmHg 84%
    09:00 +14°C° 3.5 mm 10 mps 717 mmHg 84%
    10:00 +14°C° 2.5 mm 10 mps 717 mmHg 84%
    11:00 +16°C° 2.5 mm 9 mps 718 mmHg 83%
    12:00 +16°C° 2.5 mm 9 mps 719 mmHg 82%
    13:00 +16°C° 0.4 mm 8 mps 719 mmHg 79%
    14:00 +16°C° 0.4 mm 6 mps 720 mmHg 77%
    15:00 +16°C° 0.4 mm 5 mps 720 mmHg 74%
    16:00 +15°C° 2 mm 5 mps 721 mmHg 77%
    17:00 +15°C° 2 mm 4 mps 722 mmHg 79%
    18:00 +14°C° 2 mm 4 mps 723 mmHg 81%
    19:00 +13°C° 0.6 mm 3 mps 723 mmHg 84%
    20:00 +13°C° 0.6 mm 2 mps 724 mmHg 86%
    21:00 +12°C° 0.6 mm 1 mps 725 mmHg 89%
    22:00 +12°C° 0 mm 1 mps 725 mmHg 87%
    23:00 +12°C° 0 mm 2 mps 726 mmHg 85%

    Day after tomorrow, 26 March, Tuesday

    Time Temperature Precipitation Wind Pressure Humidity
    00:00 +12°C° 0 mm 2 mps 726 mmHg 84%
    01:00 +11°C° 0.1 mm 3 mps 726 mmHg 81%
    02:00 +11°C° 0.1 mm 3 mps 726 mmHg 78%
    03:00 +11°C° 0.1 mm 4 mps 726 mmHg 75%
    04:00 +11°C° 0 mm 4 mps 726 mmHg 74%
    05:00 +11°C° 0 mm 3 mps 726 mmHg 72%
    06:00 +11°C° 0 mm 3 mps 726 mmHg 71%
    07:00 +13°C° 0 mm 3 mps 726 mmHg 67%
    08:00 +14°C° 0 mm 3 mps 726 mmHg 63%
    09:00 +16°C° 0 mm 3 mps 727 mmHg 59%
    10:00 +18°C° 0 mm 4 mps 726 mmHg 53%
    11:00 +19°C° 0 mm 5 mps 726 mmHg 47%
    12:00 +20°C° 0 mm 5 mps 725 mmHg 41%
    13:00 +21°C° 0 mm 5 mps 725 mmHg 40%
    14:00 +21°C° 0 mm 5 mps 725 mmHg 39%
    15:00 +21°C° 0 mm 5 mps 725 mmHg 38%
    16:00 +20°C° 0.1 mm 5 mps 725 mmHg 45%
    17:00 +17°C° 0.1 mm 6 mps 725 mmHg 52%
    18:00 +16°C° 0.1 mm 6 mps 726 mmHg 59%
    19:00 +16°C° 0.4 mm 6 mps 726 mmHg 61%
    20:00 +15°C° 0.4 mm 5 mps 727 mmHg 64%
    21:00 +14°C° 0.4 mm 4 mps 727 mmHg 66%
    22:00 +13°C° 0.1 mm 4 mps 728 mmHg 70%
    23:00 +13°C° 0.1 mm 5 mps 728 mmHg 74%

    27 March, Wednesday

    Time Temperature Precipitation Wind Pressure Humidity
    00:00 +12°C° 0.1 mm 5 mps 728 mmHg 78%
    01:00 +12°C° 0 mm 5 mps 728 mmHg 78%
    02:00 +12°C° 0 mm 5 mps 729 mmHg 78%
    03:00 +12°C° 0 mm 5 mps 729 mmHg 78%
    04:00 +10°C° 0 mm 5 mps 730 mmHg 82%
    05:00 +10°C° 0 mm 5 mps 730 mmHg 86%
    06:00 +9°C° 0 mm 6 mps 731 mmHg 90%
    07:00 +10°C° 0 mm 6 mps 731 mmHg 85%
    08:00 +11°C° 0 mm 6 mps 732 mmHg 79%
    09:00 +13°C° 0 mm 6 mps 733 mmHg 73%
    10:00 +14°C° 0.2 mm 7 mps 733 mmHg 69%
    11:00 +16°C° 0.2 mm 7 mps 733 mmHg 64%
    12:00 +17°C° 0.2 mm 7 mps 733 mmHg 59%
    13:00 +17°C° 0.5 mm 7 mps 733 mmHg 57%
    14:00 +17°C° 0.5 mm 6 mps 733 mmHg 55%
    15:00 +17°C° 0.5 mm 6 mps 732 mmHg 54%
    16:00 +17°C° 0.3 mm 5 mps 732 mmHg 55%
    17:00 +17°C° 0.3 mm 4 mps 733 mmHg 57%
    18:00 +17°C° 0.3 mm 3 mps 733 mmHg 59%
    19:00 +16°C° 0.2 mm 3 mps 733 mmHg 62%
    20:00 +15°C° 0.2 mm 2 mps 733 mmHg 65%
    21:00 +14°C° 0.2 mm 2 mps 733 mmHg 68%
    22:00 +14°C° 0.2 mm 2 mps 733 mmHg 70%
    23:00 +13°C° 0.2 mm 3 mps 733 mmHg 72%

    28 March, Thursday

    Time Temperature Precipitation Wind Pressure Humidity
    00:00 +12°C° 0.2 mm 3 mps 733 mmHg 73%
    01:00 +12°C° 0.5 mm 3 mps 733 mmHg 75%
    02:00 +12°C° 0.5 mm 3 mps 732 mmHg 76%
    03:00 +11°C° 0.5 mm 3 mps 732 mmHg 77%
    04:00 +11°C° 0.6 mm 3 mps 732 mmHg 78%
    05:00 +11°C° 0.6 mm 3 mps 733 mmHg 78%
    06:00 +11°C° 0.6 mm 3 mps 733 mmHg 78%
    07:00 +12°C° 0.4 mm 3 mps 733 mmHg 73%
    08:00 +13°C° 0.4 mm 3 mps 733 mmHg 67%
    09:00 +16°C° 0.4 mm 3 mps 734 mmHg 62%
    10:00 +17°C° 0.4 mm 4 mps 734 mmHg 59%
    11:00 +17°C° 0.4 mm 5 mps 733 mmHg 55%
    12:00 +19°C° 0.4 mm 6 mps 733 mmHg 52%
    13:00 +19°C° 1.1 mm 5 mps 733 mmHg 53%
    14:00 +19°C° 1.1 mm 5 mps 732 mmHg 53%
    15:00 +17°C° 1.1 mm 5 mps 732 mmHg 54%
    16:00 +18°C° 0.8 mm 4 mps 732 mmHg 57%
    17:00 +17°C° 0.8 mm 3 mps 732 mmHg 60%
    18:00 +17°C° 0.8 mm 2 mps 732 mmHg 63%
    19:00 +16°C° 0.5 mm 2 mps 732 mmHg 67%
    20:00 +15°C° 0.5 mm 2 mps 733 mmHg 70%
    21:00 +13°C° 0.5 mm 3 mps 733 mmHg 74%
    22:00 +14°C° 0.1 mm 2 mps 733 mmHg 75%
    23:00 +13°C° 0.1 mm 2 mps 733 mmHg 76%

    29 March, Friday

    Time Temperature Precipitation Wind Pressure Humidity
    00:00 +13°C° 0.1 mm 2 mps 732 mmHg 76%
    01:00 +13°C° 0 mm 2 mps 732 mmHg 76%
    02:00 +13°C° 0 mm 1 mps 732 mmHg 77%
    03:00 +12°C° 0 mm 1 mps 732 mmHg 77%
    04:00 +12°C° 0 mm 1 mps 732 mmHg 76%
    05:00 +12°C° 0 mm 1 mps 733 mmHg 75%
    06:00 +12°C° 0 mm 1 mps 733 mmHg 74%
    07:00 +14°C° 0 mm 2 mps 733 mmHg 68%
    08:00 +15°C° 0 mm 2 mps 733 mmHg 62%
    09:00 +17°C° 0 mm 2 mps 733 mmHg 56%
    10:00 +18°C° 0 mm 2 mps 733 mmHg 51%
    11:00 +19°C° 0 mm 2 mps 733 mmHg 47%
    12:00 +19°C° 0 mm 2 mps 733 mmHg 42%
    13:00 +20°C° 0 mm 2 mps 732 mmHg 41%
    14:00 +20°C° 0 mm 2 mps 732 mmHg 40%
    15:00 +20°C° 0 mm 2 mps 731 mmHg 38%
    16:00 +20°C° 0 mm 2 mps 731 mmHg 42%
    17:00 +19°C° 0 mm 2 mps 731 mmHg 47%
    18:00 +18°C° 0 mm 2 mps 731 mmHg 51%
    19:00 +18°C° 0 mm 2 mps 731 mmHg 51%
    20:00 +17°C° 0 mm 2 mps 732 mmHg 51%
    21:00 +16°C° 0 mm 2 mps 732 mmHg 51%
    22:00 +16°C° 0 mm 2 mps 732 mmHg 52%
    23:00 +16°C° 0 mm 2 mps 731 mmHg 52%
    Show more